Location: The Saddle
(36.8333°N, 80.3417°W)
Time: 13:44:55
(UTC-05:00)

deb Explorer IX - Visible Passes

Search period start: 01 December 2023 00:00
Search period end: 11 December 2023 00:00
Orbit: 524 x 936 km, 38.8° (Epoch: 01 December)

Date Brightness Start Highest point End Pass type
(mag) Time Alt. Az. Time Alt. Az. Time Alt. Az.
01 Dec ? 04:22:42 29° SSE 04:22:42 29° SSE 04:25:57 10° SE visible
01 Dec ? 06:02:05 11° WSW 06:04:37 14° SW 06:07:36 10° S visible
02 Dec ? 03:34:03 11° SE 03:34:03 11° SE 03:34:16 10° SE visible
02 Dec ? 05:13:26 19° SSW 05:13:26 19° SSW 05:17:13 10° S visible
03 Dec ? 04:24:45 16° SSE 04:24:45 16° SSE 04:26:12 10° SSE visible
06 Dec ? 19:36:33 10° SSW 19:36:53 12° SSW 19:36:53 12° SSW visible
07 Dec ? 18:45:29 10° S 18:47:49 17° SSE 18:47:49 17° SSE visible
08 Dec ? 17:55:10 10° SSE 17:56:18 11° SE 17:57:26 10° SE visible
08 Dec ? 19:36:31 10° SW 19:37:59 21° SW 19:37:59 21° SW visible
09 Dec ? 18:44:45 10° SW 18:48:25 34° SSE 18:48:41 34° SE visible
10 Dec ? 17:53:05 10° SSW 17:56:25 24° SSE 17:59:18 12° E visible
10 Dec ? 19:36:45 10° WSW 19:38:38 27° WSW 19:38:38 27° WSW visible
